Location: *
(48.8780°N, 19.2358°E)
Time: 17:38:25
(UTC+00:00)

Cosmos 1242 Rocket - Pass Details

Date: 18 October 2019
Orbit: 449 x 488 km, 81.2° (Epoch: 17 November)

Event Time Altitude Azimuth Distance (km) Brightness Sun altitude
Rises 16:23:00 0° 353° (N) 2,575 6.3 -6.4°
Reaches altitude 10° 16:25:11 10° 359° (N) 1,689 5.3 -6.8°
Maximum altitude 16:28:47 47° 74° (ENE) 662 2.8 -7.4°
Drops below altitude 10° 16:32:19 10° 149° (SSE) 1,671 5.0 -7.9°
Sets 16:34:28 0° 156° (SSE) 2,543 6.0 -8.3°
